Springfield, IL

10:02 AM CDT on September 29, 2016 (GMT -0500)
Capital

Weather History for KSPI - April, 2013

Change the Weather History Date:

Friday, April 12, 2013

  Actual Average Record
Temperature  
Mean Temperature 40 °F 52 °F  
Max Temperature 43 °F 63 °F 88 °F (1930)
Min Temperature 37 °F 41 °F 23 °F (1957)
Degree Days  
Heating Degree Days 25 13  
Month to date heating degree days 180 182  
Since 1 July heating degree days 4997 5164  
Cooling Degree Days 0 1  
Month to date cooling degree days 7 1  
Year to date cooling degree days 7 3  
Moisture  
Dew Point 33 °F    
Average Humidity 76    
Maximum Humidity 82    
Minimum Humidity 70    
Precipitation  
Precipitation 0.00 in 0.11 in 1.31 in (1952)
Month to date precipitation 1.61 1.27  
Year to date precipitation 10.66 7.53  
Snow  
Snow 0.00 in 0.00 in 1.50 in (1951)
Month to date snowfall 0.0 0.2  
Since 1 July snowfall 33.1 20.8  
Snow Depth 0.00 in    
Sea Level Pressure  
Sea Level Pressure 29.80 in    
Wind  
Wind Speed 15 mph (WSW)    
Max Wind Speed 26 mph    
Max Gust Speed 32 mph    
Visibility 10 miles    
Events      
T = Trace of Precipitation, MM = Missing Value Source: NWS Daily Summary

Daily Weather History Graph

Daily Weather History Graph

Search for Another Location

Airport or City:

Trip Planner

Search our weather history database for the weather conditions in past years. The results will help you decide how hot, cold, wet, or windy it might be!

Date:

Astronomy

Apr. 12, 2013 Rise Set
Actual Time 6:25 AM CDT 7:34 PM CDT
Civil Twilight 5:57 AM CDT 8:02 PM CDT
Nautical Twilight 5:24 AM CDT 8:35 PM CDT
Astronomical Twilight 4:49 AM CDT 9:10 PM CDT
Moon 7:35 AM CDT (4/12) 10:04 PM CDT (4/12)
Length of Visible Light 14h 04m
Length of Day
13h 09m
Waxing Crescent, 5% of the Moon is Illuminated
Apr 12
Waxing Crescent
Apr 18
First Quarter
Apr 25
Full
May 2
Last Quarter
May 9
New

Hourly Weather History & Observations

Time (CDT) Temp. Windchill Dew Point Humidity Pressure Visibility Wind Dir Wind Speed Gust Speed Precip Events Conditions
12:52 AM 37.9 °F 32.7 °F 30.9 °F 76% 29.72 in 10.0 mi WSW 6.9 mph - N/A   Overcast
1:52 AM 37.9 °F 31.5 °F 30.9 °F 76% 29.70 in 10.0 mi WSW 9.2 mph - N/A   Overcast
2:52 AM 37.9 °F 30.9 °F 30.9 °F 76% 29.70 in 10.0 mi SW 10.4 mph - N/A   Overcast
3:52 AM 37.9 °F 31.5 °F 30.9 °F 76% 29.69 in 10.0 mi WSW 9.2 mph - N/A   Overcast
4:52 AM 37.9 °F 30.5 °F 32.0 °F 79% 29.69 in 10.0 mi WSW 11.5 mph - N/A   Overcast
5:52 AM 37.9 °F 30.9 °F 32.0 °F 79% 29.70 in 10.0 mi WSW 10.4 mph - N/A   Overcast
6:39 AM 37.4 °F 30.8 °F 33.8 °F 87% 29.70 in 10.0 mi WSW 9.2 mph - N/A   Overcast
6:52 AM 37.9 °F 31.5 °F 32.0 °F 79% 29.72 in 10.0 mi WSW 9.2 mph - N/A   Overcast
7:09 AM 37.4 °F 32.1 °F 33.8 °F 87% 29.71 in 10.0 mi WSW 6.9 mph - N/A   Overcast
7:28 AM 37.4 °F 31.4 °F 32.0 °F 81% 29.72 in 10.0 mi WSW 8.1 mph - N/A   Overcast
7:52 AM 39.0 °F 32.3 °F 33.1 °F 79% 29.74 in 10.0 mi WSW 10.4 mph - N/A   Overcast
8:24 AM 39.2 °F 30.8 °F 33.8 °F 81% 29.73 in 10.0 mi WSW 15.0 mph - N/A   Overcast
8:38 AM 39.2 °F 31.6 °F 33.8 °F 81% 29.73 in 10.0 mi WSW 12.7 mph 20.7 mph N/A   Overcast
8:52 AM 39.9 °F 32.1 °F 33.1 °F 77% 29.75 in 10.0 mi WSW 13.8 mph 25.3 mph N/A   Overcast
8:59 AM 39.2 °F 30.8 °F 33.8 °F 81% 29.73 in 10.0 mi WSW 15.0 mph 20.7 mph N/A   Overcast
9:52 AM 42.1 °F 32.8 °F 33.1 °F 70% 29.75 in 10.0 mi WSW 21.9 mph 27.6 mph N/A   Overcast
10:14 AM 41.0 °F 31.6 °F 32.0 °F 70% 29.75 in 10.0 mi WSW 20.7 mph 26.5 mph N/A   Overcast
10:52 AM 41.0 °F 32.2 °F 34.0 °F 76% 29.78 in 10.0 mi West 18.4 mph 25.3 mph N/A   Overcast
11:52 AM 42.1 °F 33.1 °F 34.0 °F 73% 29.80 in 10.0 mi WSW 20.7 mph 27.6 mph N/A   Overcast
12:52 PM 41.0 °F 32.2 °F 34.0 °F 76% 29.83 in 10.0 mi West 18.4 mph 26.5 mph N/A   Overcast
1:52 PM 42.1 °F 32.8 °F 33.1 °F 70% 29.84 in 10.0 mi West 21.9 mph 27.6 mph N/A   Overcast
2:52 PM 42.1 °F 33.3 °F 33.1 °F 70% 29.87 in 10.0 mi West 19.6 mph - N/A   Overcast
3:52 PM 41.0 °F 31.9 °F 34.0 °F 76% 29.89 in 10.0 mi West 19.6 mph 25.3 mph N/A   Overcast
4:52 PM 41.0 °F 32.8 °F 34.0 °F 76% 29.91 in 10.0 mi WSW 16.1 mph - N/A   Overcast
5:17 PM 42.8 °F 34.5 °F 35.6 °F 76% 29.90 in 10.0 mi WSW 18.4 mph 26.5 mph N/A   Overcast
5:52 PM 43.0 °F 34.8 °F 35.1 °F 74% 29.91 in 10.0 mi West 18.4 mph 25.3 mph N/A   Overcast
6:52 PM 42.1 °F 34.9 °F 35.1 °F 76% 29.93 in 10.0 mi West 13.8 mph - N/A   Overcast
7:52 PM 41.0 °F 33.9 °F 35.1 °F 79% 29.94 in 10.0 mi WSW 12.7 mph - N/A   Overcast
8:52 PM 41.0 °F 33.9 °F 35.1 °F 79% 29.94 in 10.0 mi West 12.7 mph - N/A   Overcast
9:52 PM 41.0 °F 34.7 °F 36.0 °F 82% 29.96 in 10.0 mi WSW 10.4 mph - N/A   Overcast
10:52 PM 41.0 °F 33.9 °F 34.0 °F 76% 29.97 in 10.0 mi West 12.7 mph - N/A   Overcast
11:52 PM 41.0 °F 34.3 °F 35.1 °F 79% 29.98 in 10.0 mi West 11.5 mph - N/A   Overcast